Almondsbury, United Kingdom
Current Conditions -  °F | °C
As of 12:50 AM on Thursday 23 Oct 2014 (Local Time) from EGGD Reporting Station
Broken Clouds Broken Clouds  
Wind Chill: 52°   Ceiling: 2700
Heat Index: 52°   Visibility: 6mi
Dew Point: 46°   Wind: 9mph
Humidity: 82%   Direction: 220°SW
Pressure: 30.18"   Gusts: NA
Location:  51.55°N, 2.57°W
Report Text: EGGD 222350Z 22008KT 9999 SCT018 BKN027 11/08 Q1022
Loading
Personal Weather Stations






























Interactive Weather Map
Tropical Storm Tracking
New forecast layout! Learn more

10-Day Weather Forecast

Advertisements
Track Severe Weather on mobile